WZZ96E LFMN-LRCL

Flight info

Callsign WZZ96E
Flight time 1h 55m
Altitude 36000
Route BASIP Y15 ANAKI DCT RIPDU DCT LUMAV DCT LABIN DCT RJK DCT VEBAL DCT RUPUG DCT ATSOS
Aircraft A320/M-SDE3FGHIRWY/LB1

Departure

Time 2026-05-01 13:33
Airport Nice-Côte d'Azur Airport (LFMN)

Arrival

Time 2026-05-01 15:28
Airport Avram Iancu Cluj International Airport (LRCL)
Time Latitude Longitude Altitude Speed Heading
2026-05-01 12:56 43.65845 7.20587 21 ft 0 kts 330°
2026-05-01 13:21 43.65843 7.20588 21 ft 2 kts 330°
2026-05-01 13:22 43.65821 7.20606 23 ft 4 kts 326°
2026-05-01 13:22 43.65799 7.20628 24 ft 4 kts 316°
2026-05-01 13:22 43.65784 7.20656 21 ft 4 kts 271°
2026-05-01 13:22 43.65786 7.20670 21 ft 1 kts 225°
2026-05-01 13:26 43.65784 7.20668 21 ft 1 kts 225°
2026-05-01 13:26 43.65772 7.20651 22 ft 4 kts 225°
2026-05-01 13:26 43.65748 7.20618 21 ft 6 kts 225°
2026-05-01 13:26 43.65712 7.20568 21 ft 9 kts 225°
2026-05-01 13:27 43.65664 7.20502 21 ft 11 kts 224°
2026-05-01 13:27 43.65603 7.20419 21 ft 13 kts 225°
2026-05-01 13:27 43.65449 7.20208 21 ft 13 kts 225°
2026-05-01 13:28 43.65328 7.20228 21 ft 12 kts 138°
2026-05-01 13:28 43.65271 7.20305 21 ft 10 kts 134°
2026-05-01 13:29 43.65262 7.20318 21 ft 0 kts 134°
2026-05-01 13:29 43.65239 7.20351 22 ft 6 kts 134°
2026-05-01 13:30 43.64931 7.20279 21 ft 18 kts 225°
2026-05-01 13:31 43.64753 7.20166 21 ft 11 kts 138°
2026-05-01 13:31 43.64854 7.20502 23 ft 64 kts 45°
2026-05-01 13:32 43.65786 7.21778 30 ft 155 kts 46°
2026-05-01 13:33 43.66500 7.25520 1903 ft 152 kts 123°
2026-05-01 13:33 43.64861 7.27958 2498 ft 196 kts 131°
2026-05-01 13:34 43.63191 7.31127 3845 ft 209 kts 97°
2026-05-01 13:34 43.64101 7.35086 4925 ft 244 kts 59°
2026-05-01 13:35 43.65804 7.39141 6446 ft 260 kts 58°
2026-05-01 13:35 43.66716 7.41321 7298 ft 265 kts 59°
2026-05-01 13:35 43.68565 7.45781 8988 ft 273 kts 60°
2026-05-01 13:36 43.69515 7.48082 9838 ft 277 kts 60°
2026-05-01 13:36 43.70477 7.50412 10575 ft 285 kts 60°
2026-05-01 13:36 43.72612 7.55593 11039 ft 331 kts 60°
2026-05-01 13:37 43.73772 7.58413 11310 ft 349 kts 60°
2026-05-01 13:37 43.74999 7.61396 11917 ft 355 kts 60°
2026-05-01 13:37 43.76228 7.64383 12611 ft 359 kts 60°
2026-05-01 13:37 43.77468 7.67398 13311 ft 362 kts 60°
2026-05-01 13:38 43.79943 7.73428 14619 ft 368 kts 60°
2026-05-01 13:38 43.81209 7.76515 15215 ft 370 kts 60°
2026-05-01 13:38 43.82483 7.79621 15817 ft 373 kts 60°
2026-05-01 13:39 43.83755 7.82723 16425 ft 375 kts 60°
2026-05-01 13:39 43.85062 7.85921 17022 ft 378 kts 60°
2026-05-01 13:39 43.86357 7.89109 17613 ft 381 kts 60°
2026-05-01 13:39 43.87643 7.92283 18203 ft 384 kts 60°
2026-05-01 13:40 43.88986 7.95498 18782 ft 387 kts 56°
2026-05-01 13:40 43.90652 7.98448 19309 ft 390 kts 48°
2026-05-01 13:40 43.92452 8.01272 19850 ft 392 kts 48°
2026-05-01 13:40 43.94266 8.04122 20379 ft 395 kts 48°
2026-05-01 13:41 43.96096 8.07001 20887 ft 398 kts 48°
2026-05-01 13:41 43.97930 8.09896 21393 ft 401 kts 48°
2026-05-01 13:41 43.99778 8.12822 21860 ft 405 kts 48°
2026-05-01 13:41 44.01638 8.15781 22327 ft 408 kts 48°
2026-05-01 13:42 44.03509 8.18764 22776 ft 411 kts 48°
2026-05-01 13:42 44.05253 8.21936 23207 ft 415 kts 56°
2026-05-01 13:42 44.06608 8.25499 23645 ft 420 kts 65°
2026-05-01 13:42 44.07701 8.29276 24036 ft 423 kts 66°
2026-05-01 13:43 44.08805 8.33102 24390 ft 425 kts 66°
2026-05-01 13:43 44.09907 8.36922 24749 ft 428 kts 66°
2026-05-01 13:43 44.11021 8.40782 25106 ft 430 kts 66°
2026-05-01 13:43 44.12136 8.44654 25465 ft 433 kts 66°
2026-05-01 13:44 44.13259 8.48568 25827 ft 436 kts 66°
2026-05-01 13:44 44.14388 8.52495 26183 ft 438 kts 66°
2026-05-01 13:44 44.15523 8.56444 26543 ft 441 kts 66°
2026-05-01 13:44 44.16665 8.60432 26901 ft 443 kts 66°
2026-05-01 13:45 44.17803 8.64423 27247 ft 445 kts 66°
2026-05-01 13:45 44.18951 8.68457 27594 ft 448 kts 66°
2026-05-01 13:45 44.20098 8.72502 27947 ft 450 kts 66°
2026-05-01 13:45 44.21201 8.76583 28434 ft 450 kts 68°
2026-05-01 13:46 44.22245 8.80681 28955 ft 449 kts 68°
2026-05-01 13:46 44.23253 8.84806 29476 ft 448 kts 69°
2026-05-01 13:46 44.24239 8.88918 29987 ft 447 kts 69°
2026-05-01 13:46 44.25224 8.93026 30485 ft 446 kts 69°
2026-05-01 13:47 44.26218 8.97120 30924 ft 445 kts 68°
2026-05-01 13:47 44.27222 9.01208 31373 ft 444 kts 68°
2026-05-01 13:47 44.28228 9.05266 31813 ft 444 kts 68°
2026-05-01 13:47 44.29239 9.09341 32259 ft 443 kts 68°
2026-05-01 13:48 44.30244 9.13403 32714 ft 442 kts 68°
2026-05-01 13:48 44.31246 9.17460 33161 ft 441 kts 68°
2026-05-01 13:48 44.32242 9.21506 33612 ft 441 kts 68°
2026-05-01 13:48 44.33232 9.25549 34065 ft 440 kts 68°
2026-05-01 13:49 44.34222 9.29606 34490 ft 440 kts 68°
2026-05-01 13:49 44.35204 9.33641 34906 ft 439 kts 68°
2026-05-01 13:49 44.36186 9.37674 35317 ft 437 kts 68°
2026-05-01 13:49 44.37151 9.41647 35724 ft 436 kts 68°
2026-05-01 13:50 44.38121 9.45648 36113 ft 434 kts 68°
2026-05-01 13:50 44.39089 9.49644 36280 ft 435 kts 68°
2026-05-01 13:50 44.40067 9.53684 36322 ft 439 kts 68°
2026-05-01 13:51 44.42027 9.61808 36325 ft 441 kts 68°
2026-05-01 13:51 44.43979 9.69943 36327 ft 441 kts 68°
2026-05-01 13:52 44.45925 9.78088 36319 ft 441 kts 68°
2026-05-01 13:52 44.47863 9.86223 36320 ft 440 kts 68°
2026-05-01 13:53 44.49803 9.94356 36348 ft 440 kts 68°
2026-05-01 13:53 44.52693 10.06572 36359 ft 440 kts 68°
2026-05-01 13:54 44.54603 10.14701 36366 ft 439 kts 68°
2026-05-01 13:54 44.56504 10.22824 36383 ft 439 kts 68°
2026-05-01 13:55 44.58408 10.30959 36382 ft 438 kts 68°
2026-05-01 13:55 44.60299 10.39085 36392 ft 438 kts 68°
2026-05-01 13:56 44.62184 10.47233 36393 ft 438 kts 69°
2026-05-01 13:56 44.63796 10.55493 36394 ft 439 kts 72°
2026-05-01 13:57 44.64937 10.62463 36390 ft 440 kts 73°
2026-05-01 13:57 44.66506 10.72193 36377 ft 439 kts 73°
2026-05-01 13:58 44.67918 10.80544 36378 ft 438 kts 72°
2026-05-01 13:58 44.69349 10.88866 36382 ft 438 kts 72°
2026-05-01 13:59 44.70767 10.97187 36381 ft 437 kts 72°
2026-05-01 13:59 44.72170 11.05528 36378 ft 437 kts 72°
2026-05-01 14:00 44.73555 11.13783 36384 ft 436 kts 72°
2026-05-01 14:00 44.74940 11.22085 36384 ft 435 kts 72°
2026-05-01 14:01 44.76314 11.30376 36384 ft 435 kts 72°
2026-05-01 14:01 44.77687 11.38644 36386 ft 434 kts 72°
2026-05-01 14:02 44.79051 11.46922 36385 ft 433 kts 73°
2026-05-01 14:02 44.80401 11.55187 36387 ft 433 kts 73°
2026-05-01 14:03 44.81721 11.63462 36393 ft 433 kts 74°
2026-05-01 14:03 44.82797 11.71770 36401 ft 433 kts 76°
2026-05-01 14:04 44.83746 11.80156 36404 ft 433 kts 77°
2026-05-01 14:04 44.84555 11.87175 36402 ft 432 kts 76°
2026-05-01 14:05 44.85719 11.96878 36402 ft 432 kts 76°
2026-05-01 14:05 44.86723 12.05233 36406 ft 431 kts 76°
2026-05-01 14:06 44.87715 12.13578 36415 ft 431 kts 76°
2026-05-01 14:06 44.88702 12.21896 36412 ft 431 kts 76°
2026-05-01 14:07 44.89623 12.29790 36411 ft 430 kts 76°
2026-05-01 14:08 44.91075 12.42301 36404 ft 429 kts 76°
2026-05-01 14:08 44.92031 12.50611 36399 ft 429 kts 76°
2026-05-01 14:09 44.92975 12.58908 36394 ft 428 kts 76°
2026-05-01 14:09 44.93912 12.67193 36393 ft 427 kts 76°
2026-05-01 14:10 44.94845 12.75460 36389 ft 426 kts 76°
2026-05-01 14:10 44.95622 12.82323 36386 ft 425 kts 76°
2026-05-01 14:11 44.96545 12.90561 36378 ft 425 kts 76°
2026-05-01 14:11 44.97900 13.02896 36371 ft 423 kts 76°
2026-05-01 14:12 44.98828 13.11103 36370 ft 421 kts 75°
2026-05-01 14:12 45.00114 13.19153 36371 ft 418 kts 71°
2026-05-01 14:13 45.01563 13.27103 36368 ft 417 kts 71°
2026-05-01 14:13 45.02951 13.35067 36372 ft 417 kts 72°
2026-05-01 14:14 45.04271 13.43036 36368 ft 416 kts 72°
2026-05-01 14:14 45.05569 13.51002 36366 ft 415 kts 72°
2026-05-01 14:15 45.06863 13.58949 36364 ft 414 kts 72°
2026-05-01 14:15 45.08154 13.66828 36361 ft 413 kts 72°
2026-05-01 14:16 45.09448 13.74790 36360 ft 412 kts 72°
2026-05-01 14:16 45.10717 13.82640 36356 ft 412 kts 72°
2026-05-01 14:17 45.12001 13.90593 36356 ft 411 kts 72°
2026-05-01 14:17 45.13258 13.98443 36347 ft 411 kts 72°
2026-05-01 14:18 45.14517 14.06337 36348 ft 411 kts 72°
2026-05-01 14:18 45.15568 14.12954 36346 ft 411 kts 72°
2026-05-01 14:19 45.17023 14.22131 36337 ft 411 kts 73°
2026-05-01 14:19 45.18263 14.30024 36331 ft 410 kts 73°
2026-05-01 14:20 45.20111 14.41861 36327 ft 410 kts 73°
2026-05-01 14:21 45.21342 14.49750 36325 ft 409 kts 73°
2026-05-01 14:21 45.22698 14.57563 36325 ft 405 kts 66°
2026-05-01 14:22 45.25934 14.68563 36317 ft 402 kts 63°
2026-05-01 14:22 45.28105 14.75900 36321 ft 402 kts 64°
2026-05-01 14:23 45.30261 14.83231 36326 ft 403 kts 64°
2026-05-01 14:23 45.32414 14.90579 36332 ft 402 kts 64°
2026-05-01 14:24 45.34547 14.97876 36336 ft 403 kts 64°
2026-05-01 14:24 45.36690 15.05234 36336 ft 403 kts 64°
2026-05-01 14:25 45.38832 15.12590 36335 ft 403 kts 64°
2026-05-01 14:25 45.40972 15.19973 36338 ft 403 kts 64°
2026-05-01 14:26 45.44178 15.31044 36341 ft 403 kts 64°
2026-05-01 14:27 45.46305 15.38442 36344 ft 403 kts 64°
2026-05-01 14:27 45.48421 15.45840 36347 ft 403 kts 64°
2026-05-01 14:28 45.51602 15.56951 36346 ft 403 kts 64°
2026-05-01 14:28 45.53710 15.64372 36345 ft 403 kts 64°
2026-05-01 14:29 45.55812 15.71769 36349 ft 403 kts 64°
2026-05-01 14:30 45.60019 15.86619 36347 ft 403 kts 64°
2026-05-01 14:31 45.63148 15.97768 36347 ft 403 kts 64°
2026-05-01 14:31 45.65233 16.05209 36344 ft 403 kts 64°
2026-05-01 14:32 45.67306 16.12656 36342 ft 403 kts 64°
2026-05-01 14:32 45.69378 16.20113 36341 ft 403 kts 64°
2026-05-01 14:33 45.71448 16.27568 36353 ft 403 kts 64°
2026-05-01 14:33 45.73520 16.35027 36353 ft 403 kts 64°
2026-05-01 14:34 45.75560 16.42439 36357 ft 403 kts 64°
2026-05-01 14:34 45.77611 16.49911 36357 ft 403 kts 64°
2026-05-01 14:35 45.79662 16.57373 36360 ft 403 kts 65°
2026-05-01 14:35 45.81703 16.64852 36361 ft 402 kts 65°
2026-05-01 14:36 45.83738 16.72326 36360 ft 402 kts 65°
2026-05-01 14:36 45.85771 16.79805 36363 ft 402 kts 65°
2026-05-01 14:37 45.87799 16.87293 36358 ft 402 kts 65°
2026-05-01 14:37 45.89819 16.94783 36357 ft 402 kts 65°
2026-05-01 14:38 45.91839 17.02293 36360 ft 402 kts 65°
2026-05-01 14:38 45.93847 17.09793 36358 ft 402 kts 65°
2026-05-01 14:39 45.95853 17.17302 36361 ft 402 kts 65°
2026-05-01 14:39 45.97854 17.24813 36354 ft 402 kts 65°
2026-05-01 14:40 45.99788 17.32375 36357 ft 404 kts 68°
2026-05-01 14:40 46.01436 17.40112 36358 ft 405 kts 69°
2026-05-01 14:41 46.02982 17.47901 36354 ft 405 kts 69°
2026-05-01 14:41 46.04559 17.55676 36354 ft 404 kts 69°
2026-05-01 14:42 46.06168 17.63420 36351 ft 404 kts 69°
2026-05-01 14:42 46.07785 17.71187 36349 ft 404 kts 69°
2026-05-01 14:43 46.09381 17.78952 36348 ft 404 kts 69°
2026-05-01 14:43 46.10965 17.86719 36347 ft 404 kts 69°
2026-05-01 14:44 46.12542 17.94442 36347 ft 404 kts 69°
2026-05-01 14:44 46.14925 18.06152 36347 ft 404 kts 69°
2026-05-01 14:45 46.17278 18.17831 36348 ft 404 kts 69°
2026-05-01 14:46 46.18830 18.25570 36347 ft 404 kts 69°
2026-05-01 14:46 46.21167 18.37268 36347 ft 404 kts 69°
2026-05-01 14:47 46.22716 18.45069 36350 ft 404 kts 69°
2026-05-01 14:48 46.25028 18.56783 36351 ft 404 kts 69°
2026-05-01 14:48 46.27333 18.68489 36353 ft 404 kts 70°
2026-05-01 14:49 46.30382 18.84091 36352 ft 403 kts 70°
2026-05-01 14:50 46.33406 18.99701 36335 ft 403 kts 70°
2026-05-01 14:51 46.35653 19.11407 36336 ft 403 kts 70°
2026-05-01 14:52 46.37893 19.23128 36340 ft 403 kts 70°
2026-05-01 14:53 46.39878 19.33542 36334 ft 403 kts 70°
2026-05-01 14:53 46.41352 19.41367 36332 ft 403 kts 70°
2026-05-01 14:54 46.42830 19.49200 36336 ft 403 kts 70°
2026-05-01 14:54 46.44298 19.57037 36333 ft 403 kts 70°
2026-05-01 14:55 46.45761 19.64896 36334 ft 403 kts 70°
2026-05-01 14:55 46.47219 19.72750 36335 ft 403 kts 70°
2026-05-01 14:56 46.48673 19.80614 36336 ft 403 kts 70°
2026-05-01 14:56 46.50123 19.88473 36335 ft 403 kts 70°
2026-05-01 14:57 46.51568 19.96345 36332 ft 403 kts 70°
2026-05-01 14:57 46.53725 20.08150 36335 ft 403 kts 70°
2026-05-01 14:58 46.55157 20.16028 36329 ft 403 kts 70°
2026-05-01 14:58 46.56577 20.23856 36329 ft 403 kts 70°
2026-05-01 14:59 46.58007 20.31787 36329 ft 403 kts 70°
2026-05-01 14:59 46.59413 20.39669 36329 ft 403 kts 71°
2026-05-01 15:00 46.61514 20.51450 36331 ft 403 kts 70°
2026-05-01 15:01 46.62918 20.59341 36321 ft 403 kts 71°
2026-05-01 15:01 46.64314 20.67234 36326 ft 403 kts 71°
2026-05-01 15:02 46.65699 20.75131 36331 ft 403 kts 71°
2026-05-01 15:02 46.67075 20.83032 36312 ft 403 kts 71°
2026-05-01 15:03 46.68448 20.90938 36326 ft 403 kts 71°
2026-05-01 15:03 46.69821 20.98858 36311 ft 403 kts 71°
2026-05-01 15:04 46.71193 21.06777 36315 ft 403 kts 71°
2026-05-01 15:04 46.72561 21.14715 36312 ft 403 kts 71°
2026-05-01 15:05 46.73916 21.22652 36313 ft 403 kts 71°
2026-05-01 15:05 46.75263 21.30593 36309 ft 403 kts 71°
2026-05-01 15:06 46.76604 21.38498 36305 ft 403 kts 71°
2026-05-01 15:06 46.77949 21.46434 36305 ft 403 kts 71°
2026-05-01 15:07 46.79293 21.54453 36302 ft 404 kts 71°
2026-05-01 15:07 46.80622 21.62412 36304 ft 404 kts 71°
2026-05-01 15:08 46.81949 21.70382 36308 ft 404 kts 71°
2026-05-01 15:08 46.83272 21.78354 36313 ft 404 kts 71°
2026-05-01 15:09 46.84591 21.86332 36310 ft 404 kts 72°
2026-05-01 15:09 46.85903 21.94326 36313 ft 405 kts 72°
2026-05-01 15:10 46.87207 22.02323 36312 ft 405 kts 72°
2026-05-01 15:10 46.89147 22.14284 36308 ft 405 kts 72°
2026-05-01 15:11 46.89793 22.18303 36125 ft 405 kts 72°
2026-05-01 15:11 46.91077 22.26293 34987 ft 406 kts 71°
2026-05-01 15:11 46.91698 22.30320 34439 ft 403 kts 72°
2026-05-01 15:12 46.92287 22.34318 33785 ft 401 kts 72°
2026-05-01 15:12 46.93420 22.42285 32152 ft 400 kts 72°
2026-05-01 15:12 46.93986 22.46277 31325 ft 400 kts 72°
2026-05-01 15:13 46.95701 22.58190 28425 ft 400 kts 72°
2026-05-01 15:14 46.96873 22.66275 25858 ft 411 kts 72°
2026-05-01 15:14 46.97462 22.70379 24742 ft 413 kts 73°
2026-05-01 15:14 46.98628 22.78628 22447 ft 412 kts 73°
2026-05-01 15:15 46.98989 22.87003 20550 ft 415 kts 91°
2026-05-01 15:15 46.97584 22.95188 18873 ft 413 kts 102°
2026-05-01 15:16 46.95930 23.03155 17224 ft 403 kts 102°
2026-05-01 15:16 46.94326 23.10893 15808 ft 393 kts 103°
2026-05-01 15:17 46.92756 23.18465 14520 ft 385 kts 103°
2026-05-01 15:18 46.90443 23.29583 12425 ft 374 kts 104°
2026-05-01 15:18 46.89698 23.33132 11750 ft 370 kts 104°
2026-05-01 15:19 46.89210 23.43097 11091 ft 321 kts 80°
2026-05-01 15:19 46.89825 23.49301 10840 ft 297 kts 79°
2026-05-01 15:19 46.90123 23.52236 10716 ft 287 kts 79°
2026-05-01 15:20 46.90691 23.57872 10439 ft 276 kts 79°
2026-05-01 15:20 46.90970 23.60665 10096 ft 279 kts 80°
2026-05-01 15:20 46.91250 23.63471 9696 ft 279 kts 80°
2026-05-01 15:21 46.91531 23.66280 9281 ft 279 kts 79°
2026-05-01 15:21 46.91813 23.69101 8782 ft 280 kts 79°
2026-05-01 15:21 46.92090 23.71886 8253 ft 273 kts 79°
2026-05-01 15:21 46.92356 23.74618 7731 ft 269 kts 80°
2026-05-01 15:22 46.92883 23.79992 6731 ft 267 kts 79°
2026-05-01 15:22 46.93147 23.82688 6201 ft 266 kts 81°
2026-05-01 15:22 46.93063 23.85390 5676 ft 268 kts 103°
2026-05-01 15:23 46.92219 23.87831 5160 ft 276 kts 128°
2026-05-01 15:23 46.90731 23.89562 4657 ft 280 kts 154°
2026-05-01 15:23 46.88886 23.90508 4224 ft 271 kts 162°
2026-05-01 15:23 46.87133 23.91075 4143 ft 248 kts 179°
2026-05-01 15:24 46.85506 23.90705 4068 ft 230 kts 202°
2026-05-01 15:24 46.84154 23.89571 3900 ft 221 kts 224°
2026-05-01 15:24 46.83202 23.87910 3676 ft 213 kts 243°
2026-05-01 15:24 46.82658 23.85914 3418 ft 211 kts 255°
2026-05-01 15:25 46.82202 23.83852 3129 ft 211 kts 255°
2026-05-01 15:25 46.81761 23.81878 2848 ft 202 kts 255°
2026-05-01 15:25 46.81335 23.79973 2587 ft 193 kts 256°
2026-05-01 15:25 46.80935 23.78191 2334 ft 177 kts 256°
2026-05-01 15:26 46.80570 23.76569 2112 ft 158 kts 255°
2026-05-01 15:26 46.80251 23.75136 1885 ft 143 kts 257°
2026-05-01 15:26 46.79963 23.73812 1643 ft 133 kts 253°
2026-05-01 15:26 46.79667 23.72541 1458 ft 133 kts 254°
2026-05-01 15:27 46.79380 23.71270 1321 ft 132 kts 255°
2026-05-01 15:27 46.79106 23.69983 1147 ft 133 kts 255°
2026-05-01 15:27 46.78824 23.68751 1046 ft 121 kts 251°
2026-05-01 15:28 46.78516 23.67390 1043 ft 25 kts 251°
2026-05-01 15:28 46.78473 23.67210 1043 ft 13 kts 243°
2026-05-01 15:28 46.78396 23.67203 1043 ft 12 kts 144°
2026-05-01 15:29 46.78355 23.67451 1043 ft 13 kts 79°
2026-05-01 15:29 46.78380 23.67593 1043 ft 16 kts 72°
2026-05-01 15:29 46.78463 23.67957 1043 ft 22 kts 72°
2026-05-01 15:30 46.78550 23.68342 1043 ft 26 kts 72°
2026-05-01 15:31 46.78802 23.69368 1043 ft 28 kts 67°
2026-05-01 15:31 46.78756 23.69236 1043 ft 2 kts 161°
2026-05-01 15:32 46.78629 23.69300 1043 ft 17 kts 162°
2026-05-01 15:32 46.78568 23.69328 1043 ft 0 kts 162°
2026-05-01 15:33 46.78540 23.69249 1043 ft 1 kts 251°
2026-05-01 15:34 46.78540 23.69248 1043 ft 0 kts 251°